sat.trackr.live / text

‹ back to catalog

QIANFAN-57

NORAD 62787 · 2025-016C

PAYLOAD ACTIVE UNKNOWN

§ Identity

Operator
Country
PRC
Launch date
2025-01-23
Launch site
TAISC
Launch vehicle
Mass (kg)
RCS (m²)

External: N2YO · Heavens-Above · Gunter

§ Orbital elements

Epoch: 2026-09-22T20:33:25.926912Z

Period
106.59 min
Inclination
88.9678°
Eccentricity
0.0002364
Mean motion
13.51028010 rev/d
Perigee alt
1,066.7 km
Apogee alt
1,070.2 km
Semi-major
7,446.6 km
B*
5.8507e-5
RAAN
73.7139°
Arg perigee
80.4853°
Mean anomaly
279.6565°
Rev number
8,556

§ Raw data

QIANFAN-571 62787U 25016C   26265.85655008  .00000050  00000+0  58507-4 0  99952 62787  88.9678  73.7139 0002364  80.4853 279.6565 13.51028010 85566

JSON: /api/v1/satellites/62787 · /tle

For live sub-satellite position, see the globe view (requires WebGL).

§ Visibility from observer

Set your observer location to see the next 7 days of passes ≥ 10°. The values pass through the URL so the page stays shareable.

No JS? Fill the form by hand. The geolocation button needs JavaScript.